Tracking 30995 objects as of 5-Jul-2025
HD Live streaming from Space Station
objects crossing your sky now

FENGYUN 1C DEB

Track FENGYUN 1C DEB now!
10-day predictions


NORAD ID: 31714
Int'l Code: 1999-025CDM
Perigee: 640.9 km
Apogee: 681.8 km
Inclination: 99.0 °
Period: 97.8 minutes
Semi major axis: 7032 km
RCS: 0.0102 m2 (small)
Launch date: May 10, 1999
Source: People's Republic of China (PRC)
Launch site: Taiyaun Space Center, China (TSC)

Note: This is SATELLITE DEBRIS
Your satellite tracking list
COSMOS 1157
Track 1 satellite(s)




NASA's NSSDC Master Catalog

Two Line Element Set (TLE):
1 31714U 99025CDM 25185.65927809  .00020527  00000-0  32370-2 0  9991
2 31714  99.0386  66.4090 0029091  72.8718 347.6895 14.72162632936703
Source of the keplerian elements: AFSPC